Regional Weather Roundup
Issued by NWS Green Bay, WI

Home | Current Version | Previous Version | Text Only | Print | Product List | Glossary On
Versions: 1 2 3 4 5 6 7 8 9 10 11 12 13 14 15 16 17 18 19 20 21 22 23 24 25 26 27 28 29 30 31 32 33 34 35 36 37 38 39 40 41 42 43 44 45 46 47 48 49 50
000
ASUS43 KGRB 301400
RWRGRB

NORTH-CENTRAL AND NORTHEAST WISCONSIN REGIONAL WEATHER ROUNDUP
NATIONAL WEATHER SERVICE GREEN BAY WI
900 AM CDT TUE MAY 30 2017

WIZ005-009-010>012-018-019-301500-
NORTH CENTRAL WISCONSIN

CITY           SKY/WX    TMP DP  RH WIND       PRES   REMARKS
IRONWOOD       CLOUDY    49  45  86 W13       29.78F
MANITOWISH WTR NOT AVBL
ARBOR VITAE    NOT AVBL
EAGLE RIVER    NOT AVBL
LAND O LAKES   CLOUDY    48  46  90 W6        29.79S
RHINELANDER    CLOUDY    51  46  83 SW10G18   29.80F
PHILLIPS       CLOUDY    46  46  99 W3        29.81S
ANTIGO         NOT AVBL
TOMAHAWK       NOT AVBL
MERRILL        CLOUDY    51  47  87 W13G21    29.82F
$$

WIZ013-073-301500-
NORTHEAST WISCONSIN

CITY           SKY/WX    TMP DP  RH WIND       PRES   REMARKS
IRON MOUNTAIN  CLOUDY    55  45  68 SW10      29.76S
MARINETTE      NOT AVBL
$$

WIZ017-030-035>037-045-301500-
CENTRAL WISCONSIN

CITY           SKY/WX    TMP DP  RH WIND       PRES   REMARKS
MEDFORD        NOT AVBL
WAUSAU         CLOUDY    53  47  79 W10       29.82F
MOSINEE        PTSUNNY   54  48  82 W12       29.84F
MARSHFIELD     PTSUNNY   53  46  77 W17       29.84F
WISC RAPIDS    CLOUDY    56  47  71 W14G21    29.87F
STEVENS POINT  NOT AVBL
WAUPACA        MOSUNNY   61  48  63 SW12G17   29.85F
SHAWANO        CLOUDY    58  49  71 W13       29.83F
CLINTONVILLE   PTSUNNY   55  46  71 W14       29.84S
WAUTOMA        MOSUNNY   58  48  69 W12G21    29.87F
$$

WIZ038-039-048-051-301500-
FOX VALLEY

CITY           SKY/WX    TMP DP  RH WIND       PRES   REMARKS
NWS GREEN BAY  CLOUDY    58  50  75 W12       29.85S
APPLETON       PTSUNNY   57  46  67 W12       29.84F
OSHKOSH        CLOUDY    58  48  69 W12G18    29.86S
FOND DU LAC    CLOUDY    59  47  64 SW10      29.88S
$$

WIZ022-050-052-301500-
EAST CENTRAL WISCONSIN

CITY           SKY/WX    TMP DP  RH WIND       PRES   REMARKS
EPHRAIM        NOT AVBL
WASHINGTON ISL NOT AVBL
STURGEON BAY   MOSUNNY   59  49  69 SW14      29.82S
MANITOWOC      NOT AVBL
SHEBOYGAN      SUNNY     60  51  72 W18       29.87S
$$

LMZ563-521-522-541>543-301500-
LAKESHORE

STATION/POSITION TIME  TEMP    WIND        PRES    VSBY  WAVE
                       AIR SEA DIR/SP/G                  HT/PER
                 (UTC) (F)     (DEG/KT/KT) (MB)    (MI)  (FT/S)
SHEBOYGAN LKSHOR 1300   57     240/ 10/ 11 1011.2S
KEWAUNEE LKSHORE 1330   58     240/  7/ 14 1010.1S
NORTHPORT PIER   1340   57     220/  4/  8 1009.1S
CHAMBERS ISLAND  1340   56     200/  8/ 13 1008.8F
MENOMINEE LKSHOR 1324          220/ 11/ 16 1008.6
$$



USA.gov is the U.S. government's official web portal to all federal, state and local government web resources and services.